GFSGL_250_spd_021.txt.gz
Wind_Speed
25 30 25 21 20 12 7 14 21 18 16 9 2 6 4 11 14 5 10 11 29 25 23 19 15 15 15 11 12 15 19 18 24 26 30 31 32 32 32 33 27 26 36
26 25 19 16 14 5 6 12 19 18 14 4 4 5 5 8 7 20 14 31 28 24 20 16 14 15 14 17 17 18 19 20 18 21 30 30 33 33 28 31 31 35 43
26 19 14 16 11 6 5 10 15 17 13 4 4 10 8 10 10 23 34 30 22 19 16 23 22 25 25 22 22 24 29 32 36 36 38 43 48 45 41 36 30 39 42
23 15 15 15 10 9 7 8 11 14 10 6 15 12 18 17 17 27 32 27 12 16 24 28 34 30 32 35 31 41 41 40 44 50 50 49 47 44 38 33 30 28 31
16 15 16 14 9 11 8 8 10 12 5 9 14 16 16 13 26 37 32 17 16 19 26 26 34 30 35 37 40 42 41 51 48 43 42 40 36 33 32 29 25 23 21
15 16 17 11 8 9 6 6 11 7 2 8 15 13 12 11 29 32 28 13 26 23 20 25 29 27 29 30 32 38 38 40 39 33 29 29 29 26 21 19 18 15 15
15 17 15 7 6 7 3 4 8 9 9 10 21 19 15 13 24 39 26 23 25 25 22 27 23 26 25 24 27 31 29 25 29 25 24 23 23 18 18 17 14 15 17
15 15 9 4 5 4 3 5 7 9 13 12 24 22 18 16 28 32 24 25 29 27 22 21 20 16 20 23 22 25 20 19 15 14 11 12 12 12 9 11 13 13 11
12 10 5 3 5 6 6 5 7 11 14 14 20 27 21 16 17 27 26 29 31 30 29 18 18 17 19 18 18 20 20 18 19 19 18 16 13 13 10 11 14 18 21
9 7 4 3 4 9 9 6 5 6 4 9 13 19 24 20 15 17 24 20 28 30 30 26 24 22 19 17 16 16 12 14 17 19 20 22 21 20 19 19 20 19 23
8 4 4 5 8 13 9 10 9 8 7 5 8 20 24 23 18 17 20 14 20 31 29 27 26 25 21 19 19 16 14 19 18 18 18 21 21 24 26 28 31 33 37
8 5 5 7 9 11 9 12 10 9 8 6 13 19 22 26 19 18 17 15 15 20 36 27 27 25 24 25 20 19 17 19 19 20 23 25 26 27 31 31 31 34 37
5 4 5 7 8 9 11 11 8 7 9 12 12 18 24 26 23 21 18 15 14 14 16 26 25 24 22 22 19 19 24 24 24 27 24 24 26 28 26 31 30 34 41
4 3 6 8 9 11 12 11 8 11 14 13 16 14 22 23 27 19 20 15 14 16 15 15 14 14 20 22 23 24 23 21 21 19 15 19 24 24 27 28 31 36 37
10 6 4 4 8 9 10 10 7 8 12 15 15 13 12 17 23 24 23 18 15 12 11 12 12 10 14 13 10 10 13 17 16 16 19 20 24 29 28 26 25 27 27
9 9 10 7 6 9 9 7 8 7 7 9 10 10 12 12 18 21 17 18 17 12 15 9 13 10 9 7 10 12 11 14 15 19 15 12 16 13 7 11 12 18 15
6 9 10 10 9 8 7 8 8 8 8 7 6 6 9 9 11 13 17 20 17 18 16 11 10 15 19 18 15 8 8 8 8 10 13 6 2 5 7 22 11 27 25
5 6 8 9 8 8 8 9 8 9 9 9 7 7 7 8 10 11 12 14 16 21 21 20 18 19 19 16 15 15 15 12 9 6 10 12 16 17 11 22 21 25 29
7 7 6 6 7 7 6 5 6 7 8 9 8 8 7 5 5 7 9 11 13 14 14 13 13 13 14 13 11 9 9 10 7 19 20 18 17 12 8 22 26 30 38
12 10 9 7 6 5 5 4 4 5 5 6 6 5 6 8 8 6 4 4 4 5 7 8 8 7 7 7 6 8 8 13 23 24 12 8 1 15 19 28 28 33 37
21 17 14 10 7 6 7 7 6 6 4 3 4 5 4 4 5 7 4 4 6 6 7 8 9 9 9 5 2 6 11 16 19 22 15 13 20 22 22 25 30 33 38
30 27 22 17 14 11 10 9 9 7 7 8 8 9 10 12 10 8 8 4 2 8 11 13 10 9 7 7 12 10 5 7 5 10 5 13 18 23 26 29 31 33 39
33 33 31 27 22 19 18 15 13 12 11 12 12 15 17 15 7 6 7 2 3 5 10 16 16 12 16 6 3 7 10 10 11 13 19 23 25 25 28 30 35 39 41
46 43 38 34 32 30 26 22 20 19 17 17 20 20 20 17 17 16 13 11 9 5 9 17 15 13 12 11 11 13 12 11 15 21 25 25 27 28 26 34 42 44 44
51 51 48 45 41 37 33 31 28 27 26 25 24 25 28 25 25 26 26 23 20 19 17 20 24 22 18 17 17 16 17 18 19 21 22 23 29 34 37 40 43 46 50
56 54 51 51 49 44 42 41 39 37 35 34 33 33 34 33 32 32 29 28 27 26 26 27 27 27 24 23 27 28 23 21 28 32 31 32 31 35 40 44 47 49 52

GFSGL_250_spd_024.txt.gz
Wind_Speed
28 26 27 29 24 19 14 13 15 15 13 6 3 4 8 11 6 6 6 3 5 7 7 6 4 7 11 12 12 14 15 15 22 28 37 37 39 34 20 29 36 35 32
24 25 27 25 18 16 15 11 13 14 10 4 3 0 5 10 6 8 12 12 8 12 13 10 3 4 1 10 13 15 16 18 21 25 34 36 36 30 30 31 29 28 29
22 27 24 19 16 15 15 11 12 13 9 1 4 5 5 9 7 18 14 9 16 16 19 15 17 15 13 15 18 18 20 23 24 25 28 30 30 31 33 30 14 25 27
23 25 19 16 14 14 15 14 11 11 7 4 12 15 12 8 16 18 12 10 19 27 27 27 27 22 19 22 23 25 25 28 33 32 33 30 32 34 29 36 36 34 31
24 21 16 15 14 14 15 13 10 11 3 11 16 13 11 11 19 16 8 14 25 33 32 35 32 34 32 29 29 30 31 33 37 39 37 46 43 36 33 36 41 34 32
23 17 13 16 13 10 12 9 10 8 8 16 17 12 8 17 23 14 9 15 26 30 26 27 33 35 33 32 38 44 43 46 43 40 40 33 32 34 32 29 25 20 17
18 13 15 13 10 9 9 6 2 3 12 20 18 10 10 20 22 16 14 11 21 23 24 27 31 32 33 34 33 36 33 34 33 28 29 30 26 22 21 19 18 16 12
14 12 14 9 7 6 6 6 4 7 12 22 18 14 14 21 22 20 18 14 27 21 21 27 20 29 29 25 28 29 29 24 24 20 19 20 15 17 11 9 5 4 6
12 13 13 5 5 6 7 6 9 10 14 23 22 17 16 21 24 23 22 24 19 20 17 13 16 20 25 21 24 25 23 20 18 16 15 14 10 11 10 8 9 4 4
11 14 13 6 7 8 7 8 9 9 12 23 25 21 21 20 24 22 19 23 24 21 15 15 15 16 16 17 14 15 18 19 20 21 17 15 12 12 11 6 5 8 14
10 13 10 5 11 9 5 6 9 8 12 20 25 22 19 17 21 23 23 26 25 25 19 17 14 18 12 14 13 16 17 15 13 11 10 10 12 12 11 13 15 19 24
9 10 6 8 13 9 7 8 10 9 9 17 22 21 19 17 20 23 19 17 24 24 21 17 15 15 15 13 11 10 11 12 16 13 15 13 15 17 19 21 24 28 32
6 7 6 5 11 9 8 9 7 6 10 19 20 25 23 21 16 17 16 15 17 20 26 23 20 22 18 18 15 15 15 15 12 14 16 17 18 22 23 23 22 27 28
3 4 7 4 7 11 8 6 7 8 11 16 20 26 25 22 17 16 15 14 12 13 13 20 23 21 20 17 12 18 16 15 15 16 16 16 16 20 20 23 25 26 23
6 4 2 4 7 9 9 10 10 12 15 18 18 23 26 25 19 18 15 11 10 8 3 9 12 11 6 7 6 7 7 8 11 10 10 11 14 16 21 13 4 3 15
5 9 5 4 6 7 7 7 10 13 15 14 17 18 23 22 20 19 16 16 9 5 4 9 10 8 9 11 7 7 8 12 15 15 15 11 9 3 8 9 12 9 4
5 6 10 9 6 5 6 7 7 10 13 14 13 13 14 19 20 22 20 18 14 13 12 12 9 13 11 12 14 7 6 7 7 7 8 6 15 10 14 10 14 14 15
4 5 7 8 9 10 10 7 8 7 7 9 11 13 13 12 14 17 19 19 18 18 17 14 15 14 17 17 17 17 14 14 14 13 10 14 16 14 7 2 5 5 17
5 5 5 6 6 9 10 12 11 8 7 7 6 8 9 10 10 10 10 10 12 13 15 16 15 12 11 11 14 16 16 13 10 10 21 19 15 10 1 11 14 16 14
10 8 6 4 4 5 6 7 9 9 9 8 7 5 6 7 8 9 10 12 13 14 16 16 16 16 16 14 14 14 14 13 12 21 26 24 15 2 13 11 16 22 22
19 14 11 9 7 5 4 4 3 3 3 4 2 5 8 9 8 7 6 7 9 10 11 12 13 13 12 9 6 5 8 10 24 30 25 17 9 15 15 19 20 23 25
25 22 20 17 14 11 10 9 6 2 1 1 1 3 11 14 13 13 11 7 4 3 9 13 13 11 12 11 11 8 8 9 16 22 26 17 13 9 12 16 20 25 31
32 29 27 24 21 18 15 12 11 10 9 7 7 3 10 13 9 7 4 2 2 2 3 9 13 12 12 13 11 4 4 7 10 7 19 20 16 19 24 23 25 30 32
32 36 35 30 27 25 24 22 17 14 12 11 12 14 13 19 15 12 11 12 9 7 7 11 17 16 18 13 11 11 13 12 13 12 12 18 27 31 30 27 28 32 36
35 37 40 40 39 37 32 28 26 25 22 19 16 16 20 23 25 23 22 20 18 19 18 16 18 23 23 24 25 26 25 25 23 22 22 23 26 32 35 36 37 36 40
39 40 43 45 45 43 42 40 38 35 33 31 29 27 24 27 31 34 32 31 32 31 29 28 27 29 29 34 37 34 32 34 34 32 28 34 35 34 33 33 36 40 45

GFSGL_250_spd_030.txt.gz
Wind_Speed
24 24 29 31 31 31 34 33 27 25 19 16 22 25 18 16 12 8 9 13 15 15 12 10 8 7 6 4 3 6 7 9 15 26 32 30 27 23 22 24 28 32 38
21 26 28 30 31 32 32 27 25 22 14 17 22 21 11 12 5 8 11 12 17 15 13 10 6 3 1 3 4 7 8 10 16 20 24 28 28 24 22 24 28 32 41
22 25 28 30 32 30 25 24 22 15 12 18 21 17 8 7 9 13 11 12 6 13 12 11 9 5 4 7 7 7 9 11 17 26 26 29 27 25 20 21 28 30 34
22 26 28 30 29 25 22 22 16 9 12 17 20 11 4 15 19 15 12 20 17 16 18 15 14 13 13 14 14 14 13 17 22 32 34 30 31 29 25 18 21 29 24
24 24 26 28 26 21 22 16 11 9 12 15 13 1 17 24 19 15 15 22 26 29 25 21 20 17 21 22 21 20 23 26 29 32 37 40 36 33 30 23 21 28 18
23 24 25 26 21 18 12 7 7 7 11 11 4 2 23 25 19 20 20 29 33 37 36 27 31 34 33 27 28 30 34 34 33 32 29 26 27 23 27 26 29 31 33
21 22 24 21 17 11 6 4 4 7 10 7 7 10 22 25 19 23 18 25 32 36 34 37 38 41 40 37 36 33 32 32 33 25 25 19 21 30 32 32 26 32 25
20 23 22 16 11 7 3 1 3 5 5 14 7 9 20 21 22 19 20 21 25 29 31 34 39 45 47 47 48 49 48 47 39 32 25 22 25 32 31 31 28 23 20
19 22 19 14 9 4 2 0 2 3 3 16 11 9 19 22 17 17 25 20 21 25 26 29 30 31 35 35 37 39 39 38 38 37 36 31 27 25 23 23 19 15 14
17 19 15 12 5 3 1 1 3 1 6 18 14 9 21 22 21 20 21 18 18 19 21 23 22 27 28 29 29 30 32 31 30 31 28 24 22 20 18 13 9 7 5
15 14 13 8 2 1 2 2 3 1 12 20 15 10 23 22 19 18 19 20 20 20 21 18 19 23 20 21 18 17 19 20 21 21 21 21 19 14 11 7 3 3 4
12 11 10 4 2 2 1 3 6 3 14 20 15 11 15 24 22 18 17 9 13 16 18 20 16 15 15 17 18 21 17 16 18 19 15 13 9 7 5 3 3 7 8
10 8 9 3 3 2 2 6 7 7 12 20 18 12 14 21 21 21 19 11 11 15 15 12 15 10 8 12 14 12 10 10 9 9 10 11 7 6 4 7 8 5 7
10 6 6 4 2 2 3 6 6 6 10 21 21 17 11 14 19 20 20 20 17 14 12 9 11 11 10 10 9 9 7 8 8 5 7 8 10 10 11 9 7 7 10
8 6 3 3 5 5 3 1 4 6 13 21 22 18 12 10 14 18 17 15 19 18 15 18 17 16 14 14 14 13 14 15 15 9 9 9 10 10 8 8 9 8 15
8 7 2 2 6 6 4 4 5 8 14 21 25 23 17 14 11 14 14 16 14 12 12 15 15 20 20 16 14 9 8 5 10 12 11 12 9 6 8 9 9 14 17
6 7 5 3 2 6 6 5 5 6 13 17 19 24 22 18 16 15 13 14 14 9 7 11 16 13 10 7 9 3 3 3 4 13 13 12 9 8 11 14 21 13 7
4 6 5 5 4 4 7 8 8 5 9 12 18 21 22 22 18 17 18 17 12 10 9 8 12 10 8 12 11 9 7 7 10 9 8 8 9 9 14 23 19 9 13
6 6 6 5 4 7 7 8 9 9 8 7 9 14 19 23 22 19 17 18 15 12 11 11 13 9 9 11 13 15 18 16 14 12 14 14 14 14 19 23 18 9 8
6 5 6 7 7 6 9 10 9 9 10 10 10 9 10 12 18 22 23 22 19 17 16 16 16 17 18 18 18 15 13 14 14 15 15 16 17 24 23 23 15 12 12
11 6 2 3 5 7 5 6 8 9 10 8 9 11 13 13 12 12 13 14 16 15 16 18 17 15 14 13 15 14 12 12 14 16 16 16 18 26 29 19 11 14 15
15 12 10 6 3 2 4 5 7 9 8 8 7 6 8 10 11 11 11 11 11 11 10 10 10 10 11 11 11 10 9 12 11 11 15 19 22 28 35 28 21 19 21
22 20 15 12 11 9 7 5 3 3 3 4 7 9 8 8 11 14 13 11 9 7 6 5 6 6 7 8 9 10 12 11 12 9 10 12 17 29 33 34 32 31 33
30 26 22 19 19 16 15 14 12 9 7 6 5 6 13 17 16 15 13 10 8 7 5 3 4 5 7 9 10 11 14 12 12 11 12 15 18 22 28 35 37 39 43
34 31 31 30 26 21 21 21 19 19 19 16 13 10 10 13 18 19 19 17 15 14 12 10 9 8 8 9 11 14 20 20 18 17 19 21 23 25 30 35 40 40 41
43 39 34 36 34 30 27 25 25 25 26 24 22 20 19 17 16 16 17 20 22 23 23 23 22 22 22 23 24 23 22 28 29 31 29 29 32 36 41 42 44 46 49

GFSGL_250_spd_033.txt.gz
Wind_Speed
27 27 25 26 27 29 29 31 33 31 25 24 18 19 23 18 5 3 4 8 17 21 26 23 18 10 6 3 4 8 16 23 26 31 32 28 22 16 21 27 32 34 34
20 23 24 26 28 28 30 30 29 24 23 21 16 17 20 7 3 3 3 7 9 12 26 20 13 8 2 3 6 10 11 15 25 31 29 27 23 18 19 25 30 31 34
19 19 23 26 27 28 29 28 24 23 21 15 13 15 8 8 8 7 6 5 5 9 10 6 5 2 4 6 5 6 11 16 19 28 31 29 24 21 22 28 30 34 37
19 21 25 25 27 29 29 23 22 23 15 12 9 9 7 15 11 6 6 5 7 8 7 6 7 7 11 9 6 8 11 17 25 28 32 30 25 25 27 28 32 36 42
18 22 25 27 29 28 23 20 20 14 11 7 8 7 21 16 13 11 20 17 16 16 12 10 13 15 14 14 13 15 17 21 29 33 35 34 34 28 27 28 28 31 34
19 25 25 27 28 22 20 18 11 9 5 6 7 24 19 16 15 20 25 23 21 23 23 23 20 19 21 26 29 30 30 31 34 33 39 41 38 33 27 31 31 26 23
21 21 24 25 22 21 15 10 7 5 2 5 15 26 21 23 22 24 27 31 29 30 28 25 23 27 31 35 37 40 41 43 42 39 34 31 34 32 32 33 29 29 24
18 21 22 21 17 16 9 6 5 2 1 14 23 26 21 24 17 21 22 31 33 39 42 45 38 32 31 33 37 39 38 38 35 33 30 28 28 28 31 36 33 23 18
18 20 19 15 15 12 4 3 3 1 6 17 29 25 23 23 23 24 24 29 29 31 34 36 41 42 49 48 41 39 38 34 38 39 39 38 36 34 31 27 25 26 24
17 16 14 12 13 5 5 5 5 4 13 17 23 24 25 20 23 23 23 20 25 23 26 30 34 34 34 38 37 40 39 38 38 36 36 33 30 29 26 22 19 16 12
14 14 11 9 4 6 6 6 5 3 15 19 19 28 24 25 25 20 20 18 18 17 23 24 24 23 26 29 31 32 30 30 31 30 28 26 25 22 19 15 13 10 6
11 12 8 3 5 7 6 5 6 6 19 20 21 31 27 25 25 24 24 21 20 17 18 19 16 17 19 22 21 21 20 21 23 23 23 21 17 16 14 12 8 4 2
7 10 5 1 6 5 4 7 9 8 23 21 19 33 28 28 25 22 18 18 19 22 19 16 16 13 15 15 18 19 19 18 17 17 16 13 12 10 8 6 3 6 13
5 8 3 3 6 5 6 10 10 9 21 19 19 31 32 29 25 20 17 16 20 19 18 17 12 12 12 9 8 5 4 3 5 6 4 4 8 10 11 12 14 15 15
4 4 1 4 7 7 7 8 12 14 16 22 20 19 31 28 26 26 24 22 20 17 14 12 11 9 9 9 11 9 7 8 11 12 11 14 18 18 17 17 10 13 12
3 3 3 4 7 7 6 6 12 13 20 25 23 19 17 26 25 23 21 23 19 20 18 11 13 14 13 11 11 12 14 13 13 15 13 12 12 13 13 11 10 12 13
2 5 3 3 3 4 5 8 11 14 21 26 26 22 19 16 17 20 18 20 17 15 15 15 16 16 16 17 14 9 10 8 9 11 15 14 14 12 13 11 10 17 23
1 4 5 5 5 4 6 7 12 11 16 21 22 27 21 18 16 17 16 18 20 17 13 12 14 14 13 8 12 9 4 4 5 7 7 12 13 13 13 13 17 23 14
2 3 6 7 7 7 5 6 11 12 13 18 20 22 27 24 20 20 19 15 16 12 12 10 16 15 12 9 14 13 13 13 13 17 15 14 12 14 11 16 22 22 14
5 2 2 6 11 11 8 6 6 10 12 14 16 18 21 27 25 24 21 19 20 17 15 13 15 17 16 14 14 17 20 20 14 14 15 16 18 19 18 20 25 29 20
9 5 3 1 3 9 12 10 8 8 9 9 11 13 15 17 20 22 23 22 20 20 19 16 17 18 19 20 21 18 17 16 16 15 17 17 17 18 21 23 27 33 26
13 10 8 5 4 4 7 10 10 8 8 8 10 10 11 12 13 16 17 18 19 19 19 18 19 19 18 18 17 16 14 12 13 13 13 15 19 19 20 23 28 32 27
21 16 12 13 11 8 6 5 5 6 5 4 7 8 10 12 13 13 13 13 14 13 13 12 12 12 11 11 11 11 11 12 12 12 10 9 10 14 18 21 29 34 35
26 23 21 18 16 12 11 11 10 8 7 5 4 5 8 10 12 14 15 15 15 14 12 11 10 10 10 10 9 8 8 12 14 13 13 12 11 12 15 17 23 32 38
30 31 29 25 23 20 18 15 15 15 14 12 10 8 6 7 11 14 15 13 10 10 12 12 10 9 9 10 12 12 13 10 17 18 17 17 19 20 20 22 24 27 31
35 39 36 31 31 28 25 24 22 20 20 19 18 17 15 13 13 16 17 19 19 19 20 19 19 19 20 20 21 22 22 22 22 21 25 28 31 33 34 37 38 39 42